sat.trackr.live / text

‹ back to catalog

STARLINK-36063

NORAD 66606 · 2025-270U

PAYLOAD ACTIVE UNKNOWN

§ Identity

Operator
Country
US
Launch date
2025-11-22
Launch site
AFETR
Launch vehicle
Mass (kg)
RCS (m²)

Purposes: comms

External: N2YO · Heavens-Above · Gunter

§ Orbital elements

Epoch: 2026-05-24T21:39:03.693312Z

Period
94.27 min
Inclination
43.0012°
Eccentricity
0.0001652
Mean motion
15.27596910 rev/d
Perigee alt
481.9 km
Apogee alt
484.1 km
Semi-major
6,861.1 km
B*
9.0749e-4
RAAN
345.5902°
Arg perigee
271.5465°
Mean anomaly
88.5197°
Rev number
2,936

§ Raw data

STARLINK-360631 66606U 25270U   26144.90212608  .00024807  00000+0  90749-3 0  99972 66606  43.0012 345.5902 0001652 271.5465  88.5197 15.27596910 29361

JSON: /api/v1/satellites/66606 · /tle

For live sub-satellite position, see the globe view (requires WebGL).

§ Visibility from observer

Set your observer location to see the next 7 days of passes ≥ 10°. The values pass through the URL so the page stays shareable.

No JS? Fill the form by hand. The geolocation button needs JavaScript.